Weather past 2 weeks in Bantam, Cocos Islands

Now
82 °F

Passing clouds.


Feels Like: 87 °F
Forecast: 78 / 83 °F
Wind: 17 mph from East

Location: Cocos Island Airport

Current Time: Oct 1, 2014 at 1:08:12 PM

Latest Report: Oct 1, 2014 at 12:00 PM


Visibility: N/A

Pressure: 29.92 "Hg

Humidity: 70%

Dew point: 72 °F

Location of BantamLocation

Historic Weather in Bantam — Graph

°F

Bantam temperature yesterday

Maximum temperature yesterday: 82 °F (at 11:00 AM)
Minimum temperature yesterday: 77 °F (at 3:30 AM)
Average temperature yesterday: 80 °F

Past Weeks' High & Low Weather Summary

 TemperatureHumidityPressure
High84 °F (Sep 16, 12:30 PM)100% (Sep 26, 11:30 AM)30.01 "Hg (Sep 26, 11:30 AM)
Low73 °F (Sep 24, 6:30 AM)58% (Sep 18, 2:00 PM)29.80 "Hg (Sep 16, 3:30 PM)
Average80 °F75%29.92 "Hg
* Reported Sep 16 11:30 AM — Oct 1 11:30 AM, Bantam, Weather by CustomWeather, © 2014

Note: Actual official high and low records may vary slightly from our data, if they occured in-between our weather recording intervals... More about our weather records

Advertising

Bantam weather history for previous 24 hours

 ConditionsComfort  
Time TempWeatherWind HumidityBarometerVisibility
11:30 AM
Oct 1
82 °FPassing clouds.16 mph70%29.92 "HgN/A
11:00 AM82 °FScattered clouds.17 mph74%29.92 "HgN/A
10:30 AM82 °FScattered clouds.17 mph70%29.95 "HgN/A
10:00 AM82 °FScattered clouds.16 mph74%29.95 "HgN/A
9:30 AM81 °FScattered clouds.15 mph79%29.95 "HgN/A
9:00 AM81 °FScattered clouds.15 mph79%29.95 "HgN/A
8:30 AM82 °FScattered clouds.15 mph70%29.95 "HgN/A
8:00 AM81 °FScattered showers. Scattered clouds.15 mph74%29.95 "HgN/A
7:30 AM81 °FOvercast.15 mph74%29.92 "HgN/A
7:00 AM81 °FOvercast.15 mph74%29.92 "HgN/A
6:30 AM81 °FScattered showers. Passing clouds.15 mph74%29.92 "HgN/A
6:00 AM79 °FScattered showers. Partly cloudy.15 mph79%29.89 "HgN/A
5:30 AM79 °FScattered showers. Partly cloudy.15 mph79%29.89 "HgN/A
5:00 AM79 °FPassing clouds.16 mph74%29.89 "HgN/A
4:30 AM79 °FMostly cloudy.16 mph79%29.89 "HgN/A
4:00 AM79 °FPassing clouds.15 mph79%29.89 "HgN/A
3:30 AM79 °FClear.15 mph79%29.86 "HgN/A
3:00 AM79 °FClear.15 mph79%29.86 "HgN/A
2:30 AM79 °FPassing clouds.15 mph79%29.86 "HgN/A
2:00 AM79 °FWarm.16 mph79%29.86 "HgN/A
1:30 AM79 °FMostly cloudy.16 mph84%29.86 "HgN/A
1:00 AM79 °FMostly cloudy.16 mph79%29.89 "HgN/A
12:30 AM79 °FMostly cloudy.15 mph79%29.89 "HgN/A
12:00 AM77 °FSprinkles. Overcast.10 mph83%29.89 "HgN/A
11:35 PM
Sep 30
77 °FLight rain. Overcast.15 mph89%29.92 "Hg3 mi
11:00 PM81 °FPartly cloudy.13 mph74%29.92 "HgN/A
10:30 PM81 °FPassing clouds.13 mph74%29.92 "HgN/A
10:00 PM81 °FClear.15 mph74%29.92 "HgN/A
9:30 PM81 °FPartly cloudy.16 mph74%29.92 "HgN/A
9:00 PM81 °FMostly cloudy.15 mph74%29.92 "HgN/A
8:30 PM81 °FMostly cloudy.14 mph74%29.92 "HgN/A
8:00 PM81 °FPassing clouds.14 mph74%29.92 "HgN/A
7:30 PM81 °FPartly cloudy.16 mph74%29.89 "HgN/A
7:00 PM81 °FMostly cloudy.15 mph70%29.89 "HgN/A
6:30 PM81 °FMore clouds than sun.17 mph74%29.89 "HgN/A
6:00 PM81 °FScattered clouds.17 mph74%29.89 "HgN/A
5:30 PM81 °FWarm.15 mph74%29.86 "HgN/A
5:00 PM81 °FSunny.16 mph74%29.86 "HgN/A
4:30 PM82 °FPassing clouds.16 mph70%29.86 "HgN/A
4:00 PM81 °FPassing clouds.17 mph74%29.86 "HgN/A
3:30 PM82 °FPassing clouds.16 mph70%29.86 "HgN/A
3:00 PM82 °FPassing clouds.16 mph74%29.86 "HgN/A
2:30 PM82 °FPassing clouds.15 mph70%29.86 "HgN/A
2:00 PM82 °FPassing clouds.16 mph70%29.86 "HgN/A
1:30 PM82 °FScattered clouds.18 mph70%29.86 "HgN/A
1:00 PM82 °FScattered clouds.20 mph70%29.86 "HgN/A
Weather by CustomWeather, © 2014

See weather overviewHow to use our weather pages